Location: Kernascl�den
(48.0062°N, 3.3198°W)
Time: 22:33:46
(UTC+00:00)

Feng Yun 1-1 Rocket - Pass Details

Date: 21 January 2021
Orbit: 830 x 933 km, 99.2° (Epoch: 03 March)

Event Time Altitude Azimuth Distance (km) Brightness Sun altitude
Rises 17:48:53 0° 150° (SSE) 3,372 7.2 -8.8°
Reaches altitude 10° 17:51:14 10° 146° (SSE) 2,449 6.5 -9.2°
Maximum altitude 17:56:33 59° 69° (ENE) 984 4.3 -10.0°
Drops below altitude 10° 18:02:00 10° 351° (N) 2,519 6.6 -10.9°
Sets 18:04:27 0° 348° (NNW) 3,476 7.3 -11.3°
